Bellmunt





Hora UTC 22:30
Temperatura 11.0 ºC
Humitat 80.0 %
Pressió 1026.1 hPa
Pluja 0.0 mm
Velocitat vent 0.0 km/h
Direcció vent W

Dades diàries 2020-10-29



Hora UTC (hivern +1h; estiu +2h)
Temperatura (ºC) Humitat (%) Pressió (hPa) Velocitat vent (km/h) Precipitació (mm)
Hora UTC Aire Humitat Pressió Vel. Dir. Vel. Max Dir. Intent. màx 5 min.
00:00 8.2 87.0 1022.5 0.0 W 0.0 0.0
00:05 8.2 88.0 1022.5 0.0 W 11.3 0.0
00:10 8.2 88.0 1022.4 0.0 WSW 11.3 0.0
00:15 8.1 88.0 1022.4 6.4 WSW 11.3 0.0
00:20 8.1 88.0 1022.4 0.0 W 11.3 0.0
00:25 8.1 88.0 1022.5 0.0 W 11.3 0.0
00:30 8.1 88.0 1022.6 0.0 WSW 4.8 0.0
00:35 8.1 88.0 1022.6 0.0 WSW 0.0 0.0
00:40 8.1 88.0 1022.7 0.0 WSW 14.5 0.0
00:45 8.1 88.0 1022.6 0.0 W 14.5 0.0
00:50 8.1 88.0 1022.7 0.0 W 3.2 0.0
00:55 8.0 88.0 1022.7 0.0 W 3.2 0.0
01:00 8.0 88.0 1022.7 0.0 W 0.0 0.0
01:05 7.9 88.0 1022.7 0.0 W 0.0 0.0
01:10 7.9 88.0 1022.8 0.0 W 0.0 0.0
01:15 7.9 88.0 1022.7 0.0 W 16.1 0.0
01:20 7.9 88.0 1022.8 0.0 W 16.1 0.0
01:25 7.9 88.0 1022.7 0.0 WNW 0.0 0.0
01:30 7.9 88.0 1022.6 0.0 W 0.0 0.0
01:35 7.9 89.0 1022.5 0.0 W 16.1 0.0
01:40 8.1 88.0 1022.4 0.0 WSW 16.1 0.0
01:45 8.1 88.0 1022.4 1.6 WSW 11.3 0.0
01:50 8.1 88.0 1022.4 1.6 WSW 14.5 0.0
01:55 8.1 89.0 1022.5 0.0 W 20.9 0.0
02:00 8.0 88.0 1022.6 0.0 W 20.9 0.0
02:05 7.9 88.0 1022.5 0.0 W 0.0 0.0
02:10 7.9 89.0 1022.1 0.0 W 1.6 0.0
02:15 7.8 88.0 1022.0 0.0 W 9.7 0.0
02:20 7.8 89.0 1022.2 11.3 WSW 12.9 0.0
02:25 7.8 89.0 1022.2 0.0 W 14.5 0.0
02:30 7.9 89.0 1022.4 1.6 W 3.2 0.0
02:35 7.9 88.0 1022.4 0.0 W 9.7 0.0
02:40 7.8 88.0 1022.4 0.0 W 0.0 0.0
02:45 7.8 89.0 1022.5 0.0 WSW 0.0 0.0
02:50 7.8 88.0 1022.4 0.0 W 16.1 0.0
02:55 7.9 89.0 1022.2 3.2 SW 16.1 0.0
03:00 7.8 89.0 1022.2 0.0 WSW 14.5 0.0
03:05 7.9 89.0 1022.3 0.0 WSW 12.9 0.0
03:10 7.9 89.0 1022.4 0.0 W 16.1 0.0
03:15 7.9 89.0 1022.4 0.0 W 16.1 0.0
03:20 7.9 90.0 1022.4 0.0 W 9.7 0.0
03:25 7.8 90.0 1022.3 0.0 W 12.9 0.0
03:30 7.8 90.0 1022.5 0.0 W 12.9 0.0
03:35 7.8 90.0 1022.6 0.0 W 0.0 0.0
03:40 7.7 90.0 1022.8 0.0 W 0.0 0.0
03:45 7.7 89.0 1022.8 0.0 W 0.0 0.0
03:50 7.6 90.0 1022.9 0.0 W 1.6 0.0
03:55 7.6 90.0 1023.0 0.0 W 1.6 0.0
04:00 7.6 90.0 1023.0 0.0 W 9.7 0.0
04:05 7.6 90.0 1023.1 1.6 W 9.7 0.0
04:10 7.7 90.0 1023.0 0.0 W 11.3 0.0
04:15 7.7 90.0 1023.1 0.0 W 11.3 0.0
04:20 7.7 90.0 1023.2 0.0 W 0.0 0.0
04:25 7.7 90.0 1023.2 0.0 W 0.0 0.0
04:30 7.6 90.0 1023.2 0.0 W 0.0 0.0
04:35 7.5 90.0 1023.3 0.0 WNW 0.0 0.0
04:40 7.4 91.0 1023.3 0.0 WNW 0.0 0.0
04:45 7.3 91.0 1023.4 0.0 WNW 0.0 0.0
04:50 7.3 91.0 1023.4 0.0 WNW 0.0 0.0
04:55 7.3 91.0 1023.3 0.0 WNW 0.0 0.0
05:00 7.3 91.0 1023.4 0.0 WNW 0.0 0.0
05:05 7.3 92.0 1023.5 0.0 WNW 0.0 0.0
05:10 7.3 92.0 1023.5 0.0 WNW 0.0 0.0
05:15 7.2 92.0 1023.6 0.0 WNW 0.0 0.0
05:25 7.2 92.0 1023.5 0.0 W 0.0 0.0
05:30 7.1 92.0 1023.6 0.0 WNW 0.0 0.0
05:35 7.1 92.0 1023.4 0.0 W 0.0 0.0
05:40 7.1 92.0 1023.4 0.0 W 0.0 0.0
05:45 7.1 92.0 1023.4 0.0 W 0.0 0.0
05:50 7.1 92.0 1023.3 0.0 WNW 0.0 0.0
05:55 7.1 92.0 1023.4 0.0 WNW 0.0 0.0
06:00 7.1 93.0 1023.4 0.0 W 1.6 0.0
06:05 7.4 93.0 1023.4 1.6 WSW 19.3 0.0
06:10 7.4 93.0 1023.3 0.0 WSW 19.3 0.0
06:15 7.4 93.0 1023.5 0.0 W 11.3 0.0
06:20 7.4 93.0 1023.6 0.0 W 6.4 0.0
06:25 7.2 93.0 1023.6 0.0 W 6.4 0.0
06:30 7.2 93.0 1023.6 0.0 W 0.0 0.0
06:35 7.2 93.0 1023.6 0.0 W 12.9 0.0
06:40 7.3 94.0 1023.8 1.6 W 16.1 0.0
06:45 7.4 94.0 1023.8 0.0 W 16.1 0.0
06:50 7.4 94.0 1023.9 0.0 W 12.9 0.0
06:55 7.4 94.0 1024.1 0.0 W 12.9 0.0
07:00 7.4 94.0 1024.1 0.0 W 12.9 0.0
07:05 7.5 94.0 1024.1 0.0 WNW 0.0 0.0
07:10 7.4 94.0 1024.1 11.3 WSW 11.3 0.0
07:15 7.5 94.0 1024.2 0.0 W 12.9 0.0
07:20 7.5 94.0 1024.3 0.0 W 12.9 0.0
07:25 7.4 94.0 1024.2 0.0 W 14.5 0.0
07:30 7.5 94.0 1024.1 4.8 W 17.7 0.0
07:35 7.5 94.0 1024.3 1.6 W 17.7 0.0
07:40 7.6 94.0 1024.3 0.0 W 12.9 0.0
07:45 7.6 94.0 1024.4 4.8 W 12.9 0.0
07:50 7.6 94.0 1024.4 1.6 W 9.7 0.0
07:55 7.6 94.0 1024.4 0.0 W 8.0 0.0
08:00 7.4 94.0 1024.4 0.0 WSW 9.7 0.0
08:05 7.4 94.0 1024.3 3.2 WSW 19.3 0.0
08:10 7.4 94.0 1024.4 0.0 W 19.3 0.0
08:15 7.4 94.0 1024.5 0.0 W 16.1 0.0
08:20 7.5 94.0 1024.4 0.0 WNW 16.1 0.0
08:20 7.6 94.0 1024.5 0.0 W 12.9 0.0
08:25 7.7 94.0 1024.5 0.0 W 8.0 0.0
08:30 7.8 94.0 1024.5 0.0 W 1.6 0.0
08:35 7.8 94.0 1024.5 0.0 W 0.0 0.0
08:40 7.7 94.0 1024.7 0.0 WNW 0.0 0.0
08:45 7.7 94.0 1024.8 0.0 W 0.0 0.0
08:50 7.7 94.0 1024.9 0.0 W 12.9 0.0
08:55 7.6 94.0 1025.0 0.0 W 12.9 0.0
09:00 7.7 94.0 1025.2 0.0 WSW 4.8 0.0
09:05 7.6 94.0 1025.2 0.0 W 11.3 0.0
09:10 7.6 94.0 1025.4 0.0 W 3.2 0.0
09:15 7.7 94.0 1025.4 0.0 W 3.2 0.0
09:20 7.6 94.0 1025.3 0.0 W 1.6 0.0
09:25 7.4 94.0 1025.5 0.0 W 0.0 0.0
09:30 7.5 94.0 1025.5 0.0 W 0.0 0.0
09:35 7.7 94.0 1025.5 0.0 W 0.0 0.0
09:40 7.8 94.0 1025.4 0.0 W 0.0 0.0
09:45 7.9 95.0 1025.4 0.0 W 0.0 0.0
09:50 8.1 94.0 1025.4 0.0 W 0.0 0.0
09:55 8.1 94.0 1025.5 0.0 W 1.6 0.0
10:00 8.0 94.0 1025.4 0.0 W 3.2 0.0
10:05 7.9 94.0 1025.4 0.0 W 3.2 0.0
10:10 7.9 94.0 1025.5 0.0 W 0.0 0.0
10:15 7.8 94.0 1025.4 0.0 W 1.6 0.0
10:20 7.9 94.0 1025.4 3.2 W 4.8 0.0
10:25 7.8 94.0 1025.4 0.0 WSW 6.4 0.0
10:30 7.8 94.0 1025.5 1.6 WSW 8.0 0.0
10:35 7.6 94.0 1025.5 1.6 WSW 8.0 0.0
10:40 7.5 94.0 1025.5 0.0 WSW 6.4 0.0
10:45 7.4 94.0 1025.5 0.0 SSW 0.0 0.0
10:50 7.7 94.0 1025.6 0.0 WSW 4.8 0.0
10:55 8.1 94.0 1025.5 0.0 WSW 4.8 0.0
11:00 8.2 95.0 1025.5 0.0 WSW 3.2 0.0
11:05 8.2 94.0 1025.6 3.2 WSW 3.2 0.0
11:10 8.2 94.0 1025.4 0.0 WSW 3.2 0.0
11:15 8.1 94.0 1025.3 0.0 WSW 4.8 0.0
11:20 8.2 94.0 1025.3 0.0 WSW 4.8 0.0
11:25 8.4 94.0 1025.2 0.0 WSW 1.6 0.0
11:30 8.8 94.0 1025.3 0.0 W 0.0 0.0
11:35 8.9 93.0 1025.2 3.2 WSW 4.8 0.0
11:40 9.0 92.0 1025.2 0.0 WSW 4.8 0.0
11:45 9.0 90.0 1025.1 0.0 WSW 3.2 0.0
11:50 9.2 91.0 1025.1 0.0 SW 3.2 0.0
11:55 9.3 89.0 1025.0 0.0 SW 3.2 0.0
12:00 9.1 88.0 1025.0 0.0 SW 1.6 0.0
12:05 9.3 88.0 1025.0 0.0 SSW 4.8 0.0
12:10 9.4 88.0 1025.0 1.6 SSW 4.8 0.0
12:15 10.0 89.0 1024.9 0.0 W 4.8 0.0
12:25 10.5 85.0 1024.8 0.0 N 3.2 0.0
12:30 10.6 85.0 1024.8 0.0 NNE 3.2 0.0
12:35 10.5 84.0 1024.7 0.0 WSW 3.2 0.0
12:40 10.4 84.0 1024.7 0.0 WSW 3.2 0.0
12:45 10.4 84.0 1024.7 0.0 W 3.2 0.0
12:50 10.3 84.0 1024.7 0.0 W 1.6 0.0
12:55 10.3 85.0 1024.7 0.0 SSW 6.4 0.0
13:00 10.6 85.0 1024.6 1.6 W 6.4 0.0
13:05 11.3 82.0 1024.5 0.0 SW 8.0 0.0
13:10 11.3 81.0 1024.4 0.0 S 8.0 0.0
13:15 11.1 81.0 1024.4 4.8 SW 11.3 0.0
13:20 10.8 82.0 1024.6 0.0 WSW 11.3 0.0
13:25 10.8 82.0 1024.6 0.0 N 4.8 0.0
13:30 10.9 82.0 1024.4 0.0 S 1.6 0.0
13:35 10.9 82.0 1024.4 3.2 SSW 16.1 0.0
13:40 10.7 82.0 1024.5 0.0 SW 16.1 0.0
13:45 10.9 82.0 1024.5 0.0 W 8.0 0.0
13:50 11.2 81.0 1024.6 0.0 SW 6.4 0.0
13:55 11.2 81.0 1024.5 0.0 WSW 6.4 0.0
14:00 11.2 81.0 1024.6 1.6 WSW 8.0 0.0
14:05 11.4 81.0 1024.6 4.8 WSW 9.7 0.0
14:10 11.2 81.0 1024.7 0.0 SW 11.3 0.0
14:15 11.1 82.0 1024.6 0.0 WSW 12.9 0.0
14:20 11.2 82.0 1024.7 0.0 WSW 12.9 0.0
14:25 11.3 81.0 1024.5 0.0 SSW 8.0 0.0
14:30 11.0 83.0 1024.6 0.0 WSW 8.0 0.0
14:35 11.1 82.0 1024.6 3.2 SW 6.4 0.0
14:35 11.0 82.0 1024.6 3.2 SW 12.9 0.0
14:45 10.9 82.0 1024.6 1.6 WSW 12.9 0.0
14:50 11.0 81.0 1024.7 0.0 WSW 11.3 0.0
14:55 11.0 80.0 1024.8 0.0 WSW 1.6 0.0
15:00 11.1 81.0 1024.8 0.0 WSW 1.6 0.0
15:05 11.2 81.0 1024.9 0.0 WSW 0.0 0.0
15:10 11.4 80.0 1025.0 0.0 SW 1.6 0.0
15:15 11.2 81.0 1024.9 3.2 WSW 8.0 0.0
15:20 10.8 83.0 1024.9 0.0 WSW 8.0 0.0
15:25 10.8 82.0 1025.0 0.0 WSW 6.4 0.0
15:30 10.8 83.0 1024.9 0.0 WSW 6.4 0.0
15:35 11.1 83.0 1025.0 0.0 WSW 3.2 0.0
15:40 11.2 82.0 1025.1 0.0 SW 0.0 0.0
15:45 11.1 82.0 1025.1 0.0 SW 1.6 0.0
15:50 10.9 82.0 1025.1 0.0 W 1.6 0.0
15:55 10.8 82.0 1025.1 0.0 WNW 0.0 0.0
16:00 10.7 82.0 1025.0 0.0 W 1.6 0.0
16:05 10.6 83.0 1025.0 0.0 WNW 1.6 0.0
16:10 10.4 83.0 1025.0 0.0 WNW 11.3 0.0
16:15 10.4 84.0 1025.0 0.0 W 6.4 0.0
16:20 10.3 84.0 1025.0 0.0 WNW 0.0 0.0
16:25 10.3 84.0 1025.1 0.0 WNW 3.2 0.0
16:30 10.3 84.0 1025.1 0.0 WNW 3.2 0.0
16:35 10.3 85.0 1025.1 0.0 WNW 0.0 0.0
16:40 10.2 85.0 1025.1 0.0 WNW 6.4 0.0
16:45 10.2 85.0 1025.2 0.0 NW 6.4 0.0
16:50 10.2 85.0 1025.2 0.0 WNW 0.0 0.0
16:50 10.1 85.0 1025.2 0.0 WNW 8.0 0.0
17:00 10.1 86.0 1025.3 0.0 WNW 8.0 0.0
17:00 10.1 85.0 1025.2 0.0 WNW 0.0 0.0
17:10 10.1 85.0 1025.4 0.0 WNW 0.0 0.0
17:10 10.2 85.0 1025.4 0.0 WNW 0.0 0.0
17:15 10.2 85.0 1025.4 0.0 WNW 0.0 0.0
17:20 10.2 85.0 1025.5 0.0 WNW 0.0 0.0
17:25 10.2 85.0 1025.5 0.0 WNW 1.6 0.0
17:30 10.1 85.0 1025.5 0.0 WNW 1.6 0.0
17:35 10.2 85.0 1025.6 0.0 WNW 11.3 0.0
17:40 10.1 84.0 1025.6 0.0 WNW 11.3 0.0
17:45 10.2 85.0 1025.7 0.0 WNW 8.0 0.0
17:50 10.2 84.0 1025.7 0.0 WNW 0.0 0.0
17:55 10.1 85.0 1025.7 0.0 WNW 0.0 0.0
18:00 10.1 85.0 1025.8 0.0 WNW 0.0 0.0
18:05 10.1 85.0 1025.8 0.0 WNW 0.0 0.0
18:10 10.1 85.0 1025.9 0.0 WNW 0.0 0.0
18:15 10.0 85.0 1025.9 0.0 WNW 0.0 0.0
18:20 10.0 85.0 1025.9 0.0 NW 0.0 0.0
18:25 10.0 86.0 1025.9 0.0 NW 0.0 0.0
18:30 10.0 86.0 1025.8 0.0 WNW 0.0 0.0
18:35 9.9 86.0 1025.9 0.0 NW 0.0 0.0
18:40 9.9 86.0 1025.8 0.0 WNW 0.0 0.0
18:45 9.9 86.0 1025.8 0.0 WNW 0.0 0.0
18:50 9.9 86.0 1025.7 0.0 WNW 0.0 0.0
18:55 9.9 86.0 1025.7 0.0 WNW 0.0 0.0
19:00 9.9 86.0 1025.7 11.3 WNW 14.5 0.0
19:05 9.9 86.0 1025.8 0.0 NW 14.5 0.0
19:10 9.9 86.0 1025.7 0.0 NW 0.0 0.0
19:15 9.8 86.0 1025.8 0.0 NW 0.0 0.0
19:20 9.8 85.0 1025.8 0.0 NW 0.0 0.0
19:25 9.8 84.0 1025.7 0.0 NW 0.0 0.0
19:30 9.8 84.0 1025.7 0.0 NW 0.0 0.0
19:35 9.9 83.0 1025.7 0.0 NW 0.0 0.0
19:40 9.8 84.0 1025.7 0.0 NW 0.0 0.0
19:45 9.8 84.0 1025.7 0.0 NW 0.0 0.0
19:50 9.8 83.0 1025.7 0.0 NW 0.0 0.0
19:55 9.9 83.0 1025.7 0.0 NW 0.0 0.0
20:00 9.9 83.0 1025.7 0.0 NW 9.7 0.0
20:05 10.0 84.0 1025.7 0.0 NW 9.7 0.0
20:10 10.0 85.0 1025.7 0.0 NW 0.0 0.0
20:15 10.1 85.0 1025.7 0.0 NW 0.0 0.0
20:20 10.1 84.0 1025.7 0.0 NW 3.2 0.0
20:25 10.1 84.0 1025.8 0.0 NW 3.2 0.0
20:30 10.2 84.0 1025.8 0.0 NW 0.0 0.0
20:35 10.2 84.0 1025.9 0.0 NW 0.0 0.0
20:40 10.3 84.0 1025.9 0.0 NW 0.0 0.0
20:45 10.3 84.0 1025.9 0.0 NW 0.0 0.0
20:50 10.3 84.0 1025.9 0.0 WNW 0.0 0.0
20:55 10.5 83.0 1026.0 0.0 WNW 0.0 0.0
21:00 10.5 83.0 1026.1 0.0 WNW 0.0 0.0
21:05 10.5 83.0 1026.1 0.0 W 0.0 0.0
21:10 10.6 83.0 1026.1 0.0 W 0.0 0.0
21:15 10.6 83.0 1026.1 0.0 W 0.0 0.0
21:20 10.7 83.0 1026.0 0.0 W 0.0 0.0
21:25 10.9 82.0 1026.1 0.0 WNW 0.0 0.0
21:30 10.9 82.0 1026.1 0.0 WNW 0.0 0.0
21:35 11.0 82.0 1026.1 0.0 WNW 0.0 0.0
21:40 11.1 82.0 1026.1 0.0 WNW 0.0 0.0
21:45 11.0 81.0 1026.1 0.0 WNW 0.0 0.0
21:50 11.0 82.0 1026.1 0.0 WNW 0.0 0.0
21:55 11.0 81.0 1026.1 0.0 WNW 0.0 0.0
22:00 11.0 81.0 1026.1 0.0 WNW 0.0 0.0
22:05 11.0 82.0 1026.1 0.0 WNW 0.0 0.0
22:10 11.0 81.0 1026.2 0.0 WNW 0.0 0.0
22:15 11.0 81.0 1026.2 0.0 WNW 0.0 0.0
22:20 11.1 81.0 1026.2 0.0 W 0.0 0.0
22:25 11.0 81.0 1026.1 0.0 W 0.0 0.0
22:30 11.0 80.0 1026.1 0.0 W 0.0 0.0
Màxima 11.4 95.0 1026.2 11.3 WNW 20.9 0.0
Mínima 7.0 80.0 1022.0
Total 0.0